H1 CPF 2 NER 2025 8 14 9 226 01 glonass129 H2 1106402 9129 37868 2025 8 14 0 0 0 2025 8 17 23 45 0 900 1 1 0 0 0 1 H9 10 0 60901 0.00000 0 -1253874.060 -15971492.273 19865912.539 10 0 60901 900.00000 0 -216001.190 -18063568.983 18019080.083 10 0 60901 1800.00000 0 560261.238 -20001581.711 15822565.411 10 0 60901 2700.00000 0 1087563.499 -21722366.932 13318769.623 10 0 60901 3600.00000 0 1390237.669 -23168427.829 10556127.598 10 0 60901 4500.00000 0 1503040.725 -24290276.256 7588183.103 10 0 60901 5400.00000 0 1469450.771 -25048463.185 4472557.803 10 0 60901 6300.00000 0 1339587.680 -25415210.680 1269833.443 10 0 60901 7200.00000 0 1167846.033 -25375574.626 -1957631.109 10 0 60901 8100.00000 0 1010341.174 -24928087.009 -5146924.345 10 0 60901 9000.00000 0 922277.916 -24084848.496 -8235823.115 10 0 60901 9900.00000 0 955355.381 -22871065.615 -11164024.254 10 0 60901 10800.00000 0 1155320.355 -21324050.817 -13874340.892 10 0 60901 11700.00000 0 1559775.512 -19491726.978 -16313838.105 10 0 60901 12600.00000 0 2196337.946 -17430699.490 -18434883.780 10 0 60901 13500.00000 0 3081228.361 -15203977.780 -20196092.548 10 0 60901 14400.00000 0 4218352.559 -12878443.232 -21563143.136 10 0 60901 15300.00000 0 5598915.431 -10522171.237 -22509452.394 10 0 60901 16200.00000 0 7201584.580 -8201721.070 -23016692.592 10 0 60901 17100.00000 0 8993196.933 -5979508.201 -23075142.155 10 0 60901 18000.00000 0 10929978.344 -3911369.684 -22683863.609 10 0 60901 18900.00000 0 12959224.280 -2044424.397 -21850706.284 10 0 60901 19800.00000 0 15021370.205 -415316.817 -20592134.947 10 0 60901 20700.00000 0 17052363.844 951083.738 -18932889.079 10 0 60901 21600.00000 0 18986239.088 2042476.223 -16905480.861 10 0 60901 22500.00000 0 20757783.153 2859382.904 -14549543.051 10 0 60901 23400.00000 0 22305185.037 3414858.725 -11911040.746 10 0 60901 24300.00000 0 23572554.632 3733670.460 -9041363.578 10 0 60901 25200.00000 0 24512207.714 3850983.216 -5996316.909 10 0 60901 26100.00000 0 25086622.220 3810612.295 -2835032.419 10 0 60901 27000.00000 0 25269985.431 3662916.249 381180.311 10 0 60901 27900.00000 0 25049268.976 3462421.450 3590018.837 10 0 60901 28800.00000 0 24424788.423 3265279.157 6729386.691 10 0 60901 29700.00000 0 23410225.701 3126662.472 9738583.383 10 0 60901 30600.00000 0 22032114.759 3098212.478 12559463.493 10 0 60901 31500.00000 0 20328812.821 3225640.270 15137543.607 10 0 60901 32400.00000 0 18349000.484 3546584.788 17423037.238 10 0 60901 33300.00000 0 16149772.838 4088815.448 19371799.398 10 0 60901 34200.00000 0 13794400.161 4868854.289 20946164.237 10 0 60901 35100.00000 0 11349849.770 5891075.068 22115661.170 10 0 60901 36000.00000 0 8884170.091 7147317.363 22857597.002 10 0 60901 36900.00000 0 6463843.390 8617032.816 23157493.708 10 0 60901 37800.00000 0 4151214.846 10267959.086 23009373.849 10 0 60901 38700.00000 0 2002102.626 12057295.699 22415887.909 10 0 60901 39600.00000 0 63686.589 13933335.405 21388280.339 10 0 60901 40500.00000 0 -1627237.777 15837485.896 19946193.587 10 0 60901 41400.00000 0 -3045568.092 17706600.304 18117312.101 10 0 60901 42300.00000 0 -4178711.835 19475521.584 15936851.053 10 0 60901 43200.00000 0 -5026876.457 21079736.259 13446897.468 10 0 60901 44100.00000 0 -5602819.760 22458027.516 10695614.297 10 0 60901 45000.00000 0 -5931069.882 23555016.576 7736321.082 10 0 60901 45900.00000 0 -6046646.660 24323485.013 4626467.628 10 0 60901 46800.00000 0 -5993337.459 24726378.875 1426519.834 10 0 60901 47700.00000 0 -5821599.982 24738408.210 -1801220.710 10 0 60901 48600.00000 0 -5586181.060 24347172.205 -4993839.839 10 0 60901 49500.00000 0 -5343553.202 23553760.038 -8089051.674 10 0 60901 50400.00000 0 -5149279.120 22372799.862 -11026431.331 10 0 60901 51300.00000 0 -5055418.047 20831952.089 -13748613.570 10 0 60901 52200.00000 0 -5108086.196 18970867.135 -16202431.949 10 0 60901 53100.00000 0 -5345277.216 16839651.064 -18339974.307 10 0 60901 54000.00000 0 -5795037.364 14496903.875 -20119532.322 10 0 60901 54900.00000 0 -6474074.574 12007413.611 -21506425.363 10 0 60901 55800.00000 0 -7386861.784 9439604.186 -22473681.729 10 0 60901 56700.00000 0 -8525273.298 6862845.184 -23002563.740 10 0 60901 57600.00000 0 -9868769.873 4344737.348 -23082926.632 10 0 60901 58500.00000 0 -11385124.503 1948488.133 -22713404.909 10 0 60901 59400.00000 0 -13031657.678 -269512.763 -21901423.496 10 0 60901 60300.00000 0 -14756929.226 -2261817.069 -20663034.715 10 0 60901 61200.00000 0 -16502814.531 -3991653.234 -19022585.636 10 0 60901 62100.00000 0 -18206876.859 -5434202.740 -17012223.714 10 0 60901 63000.00000 0 -19804935.348 -6577366.609 -14671251.734 10 0 60901 63900.00000 0 -21233720.303 -7421992.965 -12045345.938 10 0 60901 64800.00000 0 -22433504.229 -7981559.398 -9185653.727 10 0 60901 65700.00000 0 -23350598.526 -8281326.692 -6147789.413 10 0 60901 66600.00000 0 -23939611.817 -8357002.511 -2990748.334 10 0 60901 67500.00000 0 -24165376.317 -8252973.875 224239.152 10 0 60901 68400.00000 0 -24004462.863 -8020184.829 3434891.407 10 0 60901 69300.00000 0 -23446222.631 -7713750.027 6579074.205 10 0 60901 70200.00000 0 -22493313.385 -7390405.373 9595991.685 10 0 60901 71100.00000 0 -21161689.508 -7105903.031 12427347.476 10 0 60901 72000.00000 0 -19480057.110 -6912459.877 15018454.672 10 0 60901 72900.00000 0 -17488817.309 -6856365.744 17319274.735 10 0 60901 73800.00000 0 -15238541.507 -6975850.857 19285366.910 10 0 60901 74700.00000 0 -12788041.253 -7299300.918 20878731.462 10 0 60901 75600.00000 0 -10202111.497 -7843893.969 22068532.078 10 0 60901 76500.00000 0 -7549039.000 -8614715.875 22831684.830 10 0 60901 77400.00000 0 -4897977.035 -9604391.834 23153303.237 10 0 60901 78300.00000 0 -2316292.894 -10793250.410 23026991.312 10 0 60901 79200.00000 0 133004.129 -12150015.002 22454978.743 10 0 60901 80100.00000 0 2393649.550 -13632996.117 21448094.869 10 0 60901 81000.00000 0 4418227.722 -15191737.304 20025580.603 10 0 60901 81900.00000 0 6169906.585 -16769048.654 18214740.142 10 0 60901 82800.00000 0 7623731.178 -18303345.370 16050437.084 10 0 60901 83700.00000 0 8767421.690 -19731195.550 13574442.470 10 0 60901 84600.00000 0 9601641.932 -20989971.834 10834645.185 10 0 60901 85500.00000 0 10139725.919 -22020496.145 7884138.187 10 0 60902 0.00000 0 10406872.917 -22769566.007 4780197.169 10 0 60902 900.00000 0 10438843.977 -23192255.307 1583168.968 10 0 60902 1800.00000 0 10280214.061 -23253889.727 -1644704.552 10 0 60902 2700.00000 0 9982254.000 -22931612.491 -4840509.303 10 0 60902 3600.00000 0 9600532.073 -22215470.690 -7941899.350 10 0 60902 4500.00000 0 9192338.166 -21108974.203 -10888330.698 10 0 60902 5400.00000 0 8814041.381 -19629101.317 -13622262.220 10 0 60902 6300.00000 0 8518495.209 -17805749.056 -16090298.287 10 0 60902 7200.00000 0 8352602.569 -15680650.312 -18244248.828 10 0 60902 8100.00000 0 8355146.117 -13305802.976 -20042084.449 10 0 60902 9000.00000 0 8554977.664 -10741477.309 -21448766.723 10 0 60902 9900.00000 0 8969644.857 -8053885.930 -22436936.593 10 0 60902 10800.00000 0 9604514.129 -5312615.128 -22987447.204 10 0 60902 11700.00000 0 10452427.325 -2587926.015 -23089730.956 10 0 60902 12600.00000 0 11493906.259 51960.683 -22741994.253 10 0 60902 13500.00000 0 12697895.879 2543482.348 -21951237.121 10 0 60902 14400.00000 0 14023013.619 4830145.511 -20733098.553 10 0 60902 15300.00000 0 15419251.073 6864630.303 -19111531.950 10 0 60902 16200.00000 0 16830055.055 8610501.979 -17118318.414 10 0 60902 17100.00000 0 18194699.305 10043460.163 -14792428.776 10 0 60902 18000.00000 0 19450846.191 11152076.265 -12179248.082 10 0 60902 18900.00000 0 20537190.125 11937991.304 -9329678.823 10 0 60902 19800.00000 0 21396071.504 12415569.115 -6299141.293 10 0 60902 20700.00000 0 21975951.603 12611022.624 -3146491.285 10 0 60902 21600.00000 0 22233645.236 12561052.822 67123.398 10 0 60902 22500.00000 0 22136218.484 12311060.010 3279445.284 10 0 60902 23400.00000 0 21662473.111 11913004.350 6428305.642 10 0 60902 24300.00000 0 20803956.744 11423006.772 9452816.305 10 0 60902 25200.00000 0 19565457.667 10898791.523 12294532.725 10 0 60902 26100.00000 0 17964964.369 10397077.626 14898566.946 10 0 60902 27000.00000 0 16033091.960 9971028.061 17214630.457 10 0 60902 27900.00000 0 13811999.174 9667862.681 19197988.434 10 0 60902 28800.00000 0 11353840.303 9526733.793 20810308.579 10 0 60902 29700.00000 0 8718815.046 9576952.353 22020389.794 10 0 60902 30600.00000 0 5972895.295 9836638.317 22804757.964 10 0 60902 31500.00000 0 3185320.928 10311851.431 23148118.301 10 0 60902 32400.00000 0 425965.859 10996239.217 23043655.976 10 0 60902 33300.00000 0 -2237318.978 11871218.003 22493179.135 10 0 60902 34200.00000 0 -4741277.835 12906681.128 21507100.785 10 0 60902 35100.00000 0 -7029632.714 14062206.944 20104258.619 10 0 60902 36000.00000 0 -9055178.652 15288718.505 18311574.467 10 0 60902 36900.00000 0 -10781505.201 16530527.958 16163557.864 10 0 60902 37800.00000 0 -12184272.391 17727682.086 13701661.100 10 0 60902 38700.00000 0 -13251987.309 18818512.280 10973496.037 10 0 60902 39600.00000 0 -13986247.805 19742282.656 8031926.014 10 0 60902 40500.00000 0 -14401441.938 20441824.985 4934049.005 10 0 60902 41400.00000 0 -14523914.614 20866048.591 1740090.935 10 0 60902 42300.00000 0 -14390635.657 20972217.749 -1487769.464 10 0 60902 43200.00000 0 -14047425.095 20727898.193 -4686620.884 10 0 60902 44100.00000 0 -13546810.821 20112487.894 -7794059.863 10 0 60902 45000.00000 0 -12945610.088 19118264.680 -10749425.590 10 0 60902 45900.00000 0 -12302338.613 17750903.882 -13495003.089 10 0 60902 46800.00000 0 -11674558.880 16029441.928 -15977169.289 10 0 60902 47700.00000 0 -11116282.069 13985685.826 -18147457.639 10 0 60902 48600.00000 0 -10675535.775 11663092.424 -19963518.787 10 0 60902 49500.00000 0 -10392202.421 9115164.279 -21389957.312 10 0 60902 50400.00000 0 -10296221.359 6403429.799 -22399027.316 10 0 60902 51300.00000 0 -10406231.667 3595093.023 -22971172.993 10 0 60902 52200.00000 0 -10728713.347 760452.330 -23095403.842 10 0 60902 53100.00000 0 -11257662.970 -2029803.047 -22769497.793 10 0 60902 54000.00000 0 -11974816.606 -4707305.195 -22000029.282 10 0 60902 54900.00000 0 -12850409.409 -7208614.934 -20802222.929 10 0 60902 55800.00000 0 -13844438.336 -9477616.062 -19199637.075 10 0 60902 56700.00000 0 -14908373.126 -11467597.548 -17223684.750 10 0 60902 57600.00000 0 -15987241.948 -13142938.498 -14913002.811 10 0 60902 58500.00000 0 -17022002.501 -14480327.778 -12312682.853 10 0 60902 59400.00000 0 -17952097.759 -15469470.086 -9473380.034 10 0 60902 60300.00000 0 -18718088.198 -16113252.010 -6450318.092 10 0 60902 61200.00000 0 -19264249.588 -16427364.230 -3302210.677 10 0 60902 62100.00000 0 -19541027.430 -16439398.710 -90120.415 10 0 60902 63000.00000 0 -19507245.531 -16187461.426 3123722.012 10 0 60902 63900.00000 0 -19131976.909 -15718360.995 6277115.989 10 0 60902 64800.00000 0 -18395999.608 -15085450.761 9309083.618 10 0 60902 65700.00000 0 -17292777.430 -14346215.758 12161034.685 10 0 60902 66600.00000 0 -15828925.371 -13559705.937 14777882.565 10 0 60902 67500.00000 0 -14024140.746 -12783922.856 17109090.962 10 0 60902 68400.00000 0 -11910602.809 -12073268.447 19109632.907 10 0 60902 69300.00000 0 -9531865.209 -11476161.470 20740845.136 10 0 60902 70200.00000 0 -6941286.089 -11032920.187 21971162.986 10 0 60902 71100.00000 0 -4200059.164 -10773998.670 22776722.967 10 0 60902 72000.00000 0 -1374925.170 -10718649.769 23141822.370 10 0 60902 72900.00000 0 1464344.021 -10874070.410 23059227.515 10 0 60902 73800.00000 0 4247587.077 -11235065.387 22530324.613 10 0 60902 74700.00000 0 6906913.689 -11784244.785 21565109.600 10 0 60902 75600.00000 0 9379275.723 -12492748.407 20182015.888 10 0 60902 76500.00000 0 11608843.981 -13321468.973 18407581.575 10 0 60902 77400.00000 0 13549092.732 -14222725.044 16275960.473 10 0 60902 78300.00000 0 15164505.477 -15142315.650 13828284.164 10 0 60902 79200.00000 0 16431830.469 -16021872.115 11111885.222 10 0 60902 80100.00000 0 17340832.505 -16801409.345 8179394.807 10 0 60902 81000.00000 0 17894508.312 -17421969.540 5087730.642 10 0 60902 81900.00000 0 18108755.117 -17828246.407 1896994.158 10 0 60902 82800.00000 0 18011505.175 -17971077.833 -1330701.905 10 0 60902 83700.00000 0 17641361.909 -17809699.677 -4532452.161 10 0 60902 84600.00000 0 17045794.981 -17313662.891 -7645798.673 10 0 60902 85500.00000 0 16278970.901 -16464330.115 -10609966.697 10 0 60903 0.00000 0 15399312.014 -15255885.782 -13367069.820 10 0 60903 900.00000 0 14466888.148 -13695813.806 -15863260.392 10 0 60903 1800.00000 0 13540754.385 -11804822.296 -18049797.183 10 0 60903 2700.00000 0 12676348.035 -9616214.831 -19884012.606 10 0 60903 3600.00000 0 11923057.955 -7174735.476 -21330155.607 10 0 60903 4500.00000 0 11322070.115 -4534935.323 -22360094.413 10 0 60903 5400.00000 0 10904581.580 -1759129.505 -22953864.833 10 0 60903 6300.00000 0 10690458.745 1084969.074 -23100053.614 10 0 60903 7200.00000 0 10687396.242 3926839.449 -22796009.958 10 0 60903 8100.00000 0 10890611.146 6695856.832 -22047882.062 10 0 60903 9000.00000 0 11283083.976 9323998.043 -20870479.166 10 0 60903 9900.00000 0 11836334.589 11748435.223 -19286963.197 10 0 60903 10800.00000 0 12511698.287 13913910.233 -17328377.427 10 0 60903 11700.00000 0 13262046.401 15774791.870 -15033022.727 10 0 60903 12600.00000 0 14033877.026 17296731.821 -12445694.919 10 0 60903 13500.00000 0 14769686.286 18457852.519 -9616799.191 10 0 60903 14400.00000 0 15410519.180 19249420.002 -6601359.811 10 0 60903 15300.00000 0 15898591.876 19675976.522 -3457945.154 10 0 60903 16200.00000 0 16179874.966 19754930.318 -247529.384 10 0 60903 17100.00000 0 16206529.240 19515622.478 2967686.932 10 0 60903 18000.00000 0 15939092.223 18997912.339 6125474.562 10 0 60903 18900.00000 0 15348324.491 18250342.544 9164768.979 10 0 60903 19800.00000 0 14416639.207 17327961.806 12026837.155 10 0 60903 20700.00000 0 13139055.786 16289897.098 14656396.342 10 0 60903 21600.00000 0 11523638.291 15196776.754 17002664.657 10 0 60903 22500.00000 0 9591400.283 14108111.585 19020324.822 10 0 60903 23400.00000 0 7375679.592 13079742.377 20670384.065 10 0 60903 24300.00000 0 4921007.909 12161459.099 21920915.224 10 0 60903 25200.00000 0 2281520.429 11394889.856 22747666.099 10 0 60903 26100.00000 0 -481030.640 10811746.602 23134526.292 10 0 60903 27000.00000 0 -3299578.950 10432500.091 23073843.045 10 0 60903 27900.00000 0 -6104270.619 10265539.176 22566579.911 10 0 60903 28800.00000 0 -8825112.518 10306850.008 21622314.520 10 0 60903 29700.00000 0 -11394634.930 10540229.559 20259074.254 10 0 60903 30600.00000 0 -13750460.024 10938026.065 18503011.242 10 0 60903 31500.00000 0 -15837670.702 11462377.245 16387920.904 10 0 60903 32400.00000 0 -17610881.833 12066896.274 13954611.087 10 0 60903 33300.00000 0 -19035927.346 12698736.497 11250131.834 10 0 60903 34200.00000 0 -20091091.892 13300949.312 8326878.764 10 0 60903 35100.00000 0 -20767834.248 13815036.600 5241585.989 10 0 60903 36000.00000 0 -21070970.605 14183589.906 2054227.186 10 0 60903 36900.00000 0 -21018308.555 14352903.972 -1173153.994 10 0 60903 37800.00000 0 -20639745.944 14275452.425 -4377660.971 10 0 60903 38700.00000 0 -19975871.872 13912118.561 -7496783.988 10 0 60903 39600.00000 0 -19076128.734 13234084.112 -10469636.751 10 0 60903 40500.00000 0 -17996613.470 12224293.170 -13238163.968 10 0 60903 41400.00000 0 -16797612.088 10878426.627 -15748294.180 10 0 60903 42300.00000 0 -15540973.219 9205343.506 -17951013.385 10 0 60903 43200.00000 0 -14287433.560 7226968.664 -19803336.765 10 0 60903 44100.00000 0 -13094010.023 4977630.317 -21269158.249 10 0 60903 45000.00000 0 -12011570.335 2502874.615 -22319960.412 10 0 60903 45900.00000 0 -11082685.766 -142192.988 -22935370.537 10 0 60903 46800.00000 0 -10339857.127 -2894969.641 -23103552.132 10 0 60903 47700.00000 0 -9804188.698 -5687733.249 -22821424.871 10 0 60903 48600.00000 0 -9484565.164 -8450236.677 -22094709.609 10 0 60903 49500.00000 0 -9377364.790 -11112409.047 -20937798.828 10 0 60903 50400.00000 0 -9466718.990 -13607051.023 -19373456.400 10 0 60903 51300.00000 0 -9725305.133 -15872411.794 -17432353.974 10 0 60903 52200.00000 0 -10115636.812 -17854540.944 -15152454.396 10 0 60903 53100.00000 0 -10591794.947 -19509318.312 -12578255.526 10 0 60903 54000.00000 0 -11101524.733 -20804078.945 -9759910.320 10 0 60903 54900.00000 0 -11588608.431 -21718767.535 -6752241.282 10 0 60903 55800.00000 0 -11995412.860 -22246576.659 -3613669.207 10 0 60903 56700.00000 0 -12265503.602 -22394044.863 -405077.516 10 0 60903 57600.00000 0 -12346215.719 -22180613.140 2811365.622 10 0 60903 58500.00000 0 -12191073.086 -21637660.764 5973404.619 10 0 60903 59400.00000 0 -11761955.223 -20807062.823 9019890.576 10 0 60903 60300.00000 0 -11030921.415 -19739331.224 11891949.888 10 0 60903 61200.00000 0 -9981616.398 -18491417.720 14534105.858 10 0 60903 62100.00000 0 -8610199.274 -17124270.925 16895333.084 10 0 60903 63000.00000 0 -6925757.062 -15700248.859 18930025.868 10 0 60903 63900.00000 0 -4950185.288 -14280494.063 20598863.584 10 0 60903 64800.00000 0 -2717539.689 -12922379.398 21869557.931 10 0 60903 65700.00000 0 -272884.458 -11677129.513 22717469.021 10 0 60903 66600.00000 0 2329317.210 -10587715.686 23126079.436 10 0 60903 67500.00000 0 5027206.006 -9687110.558 23087317.639 10 0 60903 68400.00000 0 7753842.624 -8996974.774 22601724.471 10 0 60903 69300.00000 0 10439743.867 -8526830.131 21678458.857 10 0 60903 70200.00000 0 13015536.249 -8273754.151 20335141.417 10 0 60903 71100.00000 0 15414619.193 -8222609.803 18597537.256 10 0 60903 72000.00000 0 17575728.766 -8346802.181 16499082.014 10 0 60903 72900.00000 0 19445296.142 -8609532.056 14080258.093 10 0 60903 73800.00000 0 20979502.606 -8965495.291 11387830.933 10 0 60903 74700.00000 0 22145944.580 -9362958.030 8473958.193 10 0 60903 75600.00000 0 22924837.790 -9746121.115 5395187.619 10 0 60903 76500.00000 0 23309708.471 -10057674.153 2211362.094 10 0 60903 77400.00000 0 23307540.786 -10241430.767 -1015547.061 10 0 60903 78300.00000 0 22938372.699 -10244932.227 -4222655.410 10 0 60903 79200.00000 0 22234356.054 -10021907.205 -7347404.669 10 0 60903 80100.00000 0 21238319.846 -9534480.986 -10328800.139 10 0 60903 81000.00000 0 20001897.311 -8755037.720 -13108620.305 10 0 60903 81900.00000 0 18583296.493 -7667654.075 -15632572.970 10 0 60903 82800.00000 0 17044809.669 -6269040.977 -17851373.318 10 0 60903 83700.00000 0 15450168.287 -4568951.446 -19721721.156 10 0 60903 84600.00000 0 13861856.760 -2590035.632 -21207156.868 10 0 60903 85500.00000 0 12338500.017 -367148.160 -22278778.482 10 0 60904 0.00000 0 10932436.300 2053863.307 -22915805.442 10 0 60904 900.00000 0 9687577.443 4617838.634 -23105978.483 10 0 60904 1800.00000 0 8637648.616 7262380.670 -22845787.643 10 0 60904 2700.00000 0 7804878.453 9920242.291 -22140526.031 10 0 60904 3600.00000 0 7199195.184 12521921.345 -21004168.596 10 0 60904 4500.00000 0 6817959.882 14998355.726 -19459080.029 10 0 60904 5400.00000 0 6646245.765 17283605.664 -17535558.873 10 0 60904 6300.00000 0 6657649.142 19317411.473 -15271228.112 10 0 60904 7200.00000 0 6815595.197 21047520.732 -12710285.468 10 0 60904 8100.00000 0 7075081.074 22431689.039 -9902629.148 10 0 60904 9000.00000 0 7384780.679 23439272.517 -6902877.061 10 0 60904 9900.00000 0 7689420.763 24052347.697 -3769299.323 10 0 60904 10800.00000 0 7932327.018 24266314.342 -562685.310 10 0 60904 11700.00000 0 8058032.295 24089958.444 2654832.606 10 0 60904 12600.00000 0 8014837.050 23544975.104 5820975.896 10 0 60904 13500.00000 0 7757214.598 22664973.224 8874514.595 10 0 60904 14400.00000 0 7247960.714 21494005.181 11756437.634 10 0 60904 15300.00000 0 6459998.043 20084683.876 14411077.213 10 0 60904 16200.00000 0 5377760.355 18495966.114 16787166.934 10 0 60904 17100.00000 0 3998099.042 16790694.469 18838814.857 10 0 60904 18000.00000 0 2330673.939 15032999.251 20526374.295 10 0 60904 18900.00000 0 397811.551 13285667.486 21817197.206 10 0 60904 19800.00000 0 -1766164.707 11607586.792 22686256.992 10 0 60904 20700.00000 0 -4116106.190 10051368.917 23116629.734 10 0 60904 21600.00000 0 -6597666.367 8661250.232 23099825.154 10 0 60904 22500.00000 0 -9149319.017 7471355.374 22635960.888 10 0 60904 23400.00000 0 -11704686.382 6504395.601 21733776.114 10 0 60904 24300.00000 0 -14195083.490 5770855.972 20410483.083 10 0 60904 25200.00000 0 -16552175.471 5268705.659 18691457.715 10 0 60904 26100.00000 0 -18710639.295 4983644.457 16609773.201 10 0 60904 27000.00000 0 -20610720.369 4889876.425 14205583.392 10 0 60904 27900.00000 0 -22200577.802 4951379.656 11525365.687 10 0 60904 28800.00000 0 -23438319.943 5123620.141 8621036.147 10 0 60904 29700.00000 0 -24293643.911 5355638.552 5548952.433 10 0 60904 30600.00000 0 -24749008.723 5592422.383 2368822.956 10 0 60904 31500.00000 0 -24800290.795 5777463.006 -857456.823 10 0 60904 32400.00000 0 -24456892.297 5855388.471 -4067017.936 10 0 60904 33300.00000 0 -23741296.084 5774558.925 -7197256.628 10 0 60904 34200.00000 0 -22688084.739 5489512.396 -10187072.557 10 0 60904 35100.00000 0 -21342464.490 4963154.644 -12978080.411 10 0 60904 36000.00000 0 -19758356.354 4168597.511 -15515769.293 10 0 60904 36900.00000 0 -17996135.749 3090565.203 -17750585.198 10 0 60904 37800.00000 0 -16120117.124 1726306.605 -19638913.692 10 0 60904 38700.00000 0 -14195891.090 85973.166 -21143942.249 10 0 60904 39600.00000 0 -12287627.807 -1807554.939 -22236384.463 10 0 60904 40500.00000 0 -10455461.425 -3919387.763 -22895051.617 10 0 60904 41400.00000 0 -8753066.505 -6203859.588 -23107260.584 10 0 60904 42300.00000 0 -7225528.547 -8606225.827 -22869070.642 10 0 60904 43200.00000 0 -5907597.709 -11064751.040 -22185345.537 10 0 60904 44100.00000 0 -4822397.847 -13513099.871 -21069640.788 10 0 60904 45000.00000 0 -3980643.277 -15882930.098 -19543919.787 10 0 60904 45900.00000 0 -3380393.742 -18106578.891 -17638105.702 10 0 60904 46800.00000 0 -3007355.102 -20119729.851 -15389479.299 10 0 60904 47700.00000 0 -2835710.123 -21863949.654 -12841935.755 10 0 60904 48600.00000 0 -2829441.519 -23288989.087 -10045116.148 10 0 60904 49500.00000 0 -2944088.884 -24354753.595 -7053431.454 10 0 60904 50400.00000 0 -3128863.288 -25032862.614 -3924998.858 10 0 60904 51300.00000 0 -3329028.730 -25307734.500 -720511.524 10 0 60904 52200.00000 0 -3488449.032 -25177153.824 2497936.061 10 0 60904 53100.00000 0 -3552192.381 -24652299.431 5668044.438 10 0 60904 54000.00000 0 -3469083.876 -23757234.010 8728504.544 10 0 60904 54900.00000 0 -3194099.138 -22527878.073 11620169.752 10 0 60904 55800.00000 0 -2690499.080 -21010512.230 14287183.005 10 0 60904 56700.00000 0 -1931616.965 -19259870.749 16678038.657 10 0 60904 57600.00000 0 -902223.438 -17336905.660 18746560.121 10 0 60904 58500.00000 0 400587.340 -15306313.820 20452776.060 10 0 60904 59400.00000 0 1967027.747 -13233928.504 21763679.854 10 0 60904 60300.00000 0 3774779.252 -11184082.367 22653859.084 10 0 60904 61200.00000 0 5789682.184 -9217049.507 23105983.925 10 0 60904 62100.00000 0 7966926.127 -7386671.122 23111145.641 10 0 60904 63000.00000 0 10252694.040 -5738261.792 22669038.654 10 0 60904 63900.00000 0 12586194.576 -4306882.290 21787982.091 10 0 60904 64800.00000 0 14902001.072 -3116050.101 20484779.256 10 0 60904 65700.00000 0 17132602.633 -2176941.287 18784416.026 10 0 60904 66600.00000 0 19211063.356 -1488117.484 16719602.013 10 0 60904 67500.00000 0 21073680.462 -1035790.361 14330161.089 10 0 60904 68400.00000 0 22662531.206 -794613.640 11662280.886 10 0 60904 69300.00000 0 23927801.961 -728970.691 8767633.805 10 0 60904 70200.00000 0 24829801.110 -794704.574 5702385.040 10 0 60904 71100.00000 0 25340569.716 -941218.269 2526105.849 10 0 60904 72000.00000 0 25445020.288 -1113856.496 -699387.105 10 0 60904 72900.00000 0 25141553.558 -1256467.735 -3911243.405 10 0 60904 73800.00000 0 24442125.153 -1314036.711 -7046816.967 10 0 60904 74700.00000 0 23371757.633 -1235273.826 -10044904.863 10 0 60904 75600.00000 0 21967517.242 -975049.388 -12846960.865 10 0 60904 76500.00000 0 20276998.013 -496566.762 -15398257.998 10 0 60904 77400.00000 0 18356377.262 226820.308 -17648975.373 10 0 60904 78300.00000 0 16268125.196 1210225.649 -19555186.304 10 0 60904 79200.00000 0 14078466.211 2456344.438 -21079727.025 10 0 60904 80100.00000 0 11854700.146 3955101.796 -22192928.052 10 0 60904 81000.00000 0 9662497.396 5683851.965 -22873193.535 10 0 60904 81900.00000 0 7563282.543 7608120.053 -23107417.351 10 0 60904 82800.00000 0 5611816.863 9682854.972 -22891228.373 10 0 60904 83700.00000 0 3854080.985 11854140.352 -22229061.073 10 0 60904 84600.00000 0 2325545.589 14061290.893 -21134051.254 10 0 60904 85500.00000 0 1049901.089 16239245.351 -19627760.353 99